{"data":{"norad_id":51461,"intl_designator":"2022-010F","name":"STARLINK-3181","alt_names":[],"object_type":"PAYLOAD","status":"ACTIVE","operator":null,"country":"US","launch_date":"2022-02-03","launch_site_code":"AFETR","launch_vehicle":null,"mission":null,"orbit_class":"UNKNOWN","rcs_meters":null,"size_class":null,"mass_kg":null,"dimensions":null,"purposes":["comms"],"wikipedia_slug":null,"has_3d_model":false,"image_url":null,"decayed_at":null,"tle_current":{"epoch":"2026-09-19T22:10:29.597952Z","epoch_age_seconds":98232,"freshness":"FRESH","line1":"1 51461U 22010F   26262.92395368  .00000219  00000+0  17183-4 0  9990","line2":"2 51461  53.1600 118.1516 0001279  97.6011 262.5137 15.35393847256265","mean_motion":15.35393847,"eccentricity":0.0001279,"inclination_deg":53.16,"raan_deg":118.1516,"arg_perigee_deg":97.6011,"mean_anomaly_deg":262.5137,"bstar":1.7183e-5,"rev_number":25626,"period_min":93.787011248847,"perigee_km":458.87634510376,"apogee_km":460.62547683139,"semimajor_km":6837.8879109676,"source":"CELESTRAK","updated_at":"2026-09-20T09:00:39.593894Z"}}}